Tracking 22438 objects as of 24-Feb-2021
HD Live streaming from Space Station
objects crossing your sky now

FREGAT DEB

Track FREGAT DEB now!
10-day predictions


NORAD ID: 46409
Int'l Code: 2011-037LN
Perigee: 1,353.8 km
Apogee: 4,112.1 km
Inclination: 51.2 °
Period: 144.1 minutes
Semi major axis: 9103 km
RCS: Unknown
Launch date: July 18, 2011
Source: Commonwealth of Independent States (former USSR) (CIS)
Launch site: TYURATAM MISSILE AND SPACE COMPLEX (TTMTR)

Note: This is SATELLITE DEBRIS
aabbcc
Your satellite tracking list
Your tracking list is empty




NASA's NSSDC Master Catalog

Two Line Element Set (TLE):
1 46409U 11037LQ  20281.07543435 +.00010409 +00000-0 +23290+0 0  9998
2 46409 051.2450 167.1448 1514867 171.3218 191.7203 09.99438614004165
Source of the keplerian elements: AFSPC